星链-34845 (STARLINK-34845)

导读

STARLINK-34845是美国SpaceX星链互联网星座的一员,于2025年8月22日发射,星链项目旨在为全球提供高速低延迟卫星互联网服务,该卫星延续星链标准设计,运行近地轨道,属于美国大规模部署低轨卫星星座计划的组成部分,进一步扩充星链星座规模。

Basic Information
目录编号:
65289
目录名称:
STARLINK-34845
国际标识:
2025-184S
轨道中心:
EARTH
卫星名称:
星链-34845
卫星全名:
星链-34845 (STARLINK-34845)
卫星状态:
在轨 (已飞行387 天)
发射日期:
2025-08-22 UTC
国别 :
美国 (US)
星等 :
--
This satellite is enrolled in the Space Conjunction Data Service (SCDS) and the current flight risk assessment level is: High Risk
Orbit Information
数据来源 国际轨道数据 AOE轨道数据
星历时间 2026-09-12T10:00:21+0800
1天前
查看轨道信息
2026-09-11T23:00:00+0800
1天前
查看轨道信息
半长轴 6843.655km 6843.646km
偏心率 0.0001326 0.0000891
轨道倾角 97.282° 97.288°
近地点辐角 96.597° 92.779°
升交点赤经 303.159° 302.705°
平近点角 263.542° 257.495°
近地点 464.61km 464.899km
远地点 466.426km 466.119km
周期 93.906分钟 93.905分钟
每日圈数 15.334537 15.334567
Detailed Information
固有亮度:
5
最大亮度:
2.5
卫星平台:
Starlink V1.0
覆盖范围:
全球
运营商:
太空探索技术公司
运营商所在国:
美国
制造商(研发单位):
太空探索技术公司
制造商所在国:
美国
使用方式:
暂无
Satellite Introduction
Starlink 计划是 SpaceX 推出的全球卫星互联网项目,通过发射低轨道卫星,为全球尤其是偏远地区提供高速、低延迟的互联网服务。自 2019 年起,Starlink 已部署数千颗卫星,旨在缩小全球数字鸿沟,推动互联网普及。该项目还为军事、航空等行业提供通信支持,带来广泛经济效益。
2D Orbit Map
3D Orbit Map
Orbit Altitude Analysis Chart
Orbit Inclination Analysis Chart
Orbit Comprehensive Analysis Chart
View Comprehensive Chart
Conjunction Data List
Event ID Objects TCA Miss Dist (km) Collision Risk Probability Collision Risk Index (CRI) Action
CDM_260915-044006-528906-862021
2026-09-15T
04:40:28+0000
0.579 km
远距离
1.431307E-4 高风险 0.78
CDM_260915-061406-528906-862021
2026-09-15T
06:14:25+0000
1.353 km
极远距离
9.412111E-6 低风险 0.54
CDM_260915-022705-635106-528921
2026-09-15T
02:27:04+0000
2.437 km
极远距离
1.138776E-6 低风险 0.36
CDM_260914-024405-283106-528921
2026-09-14T
02:44:00+0000
2.989 km
极远距离
9.409247E-7 极低风险 0.34
CDM_260914-000905-298806-528921
2026-09-14T
00:09:32+0000
2.787 km
极远距离
8.692792E-7 极低风险 0.34
Miss Distance Evolution Trend with All Objects
Collision Probability Evolution Trend with All Objects